CW0315 Weather Reports


time (UTC)temp
C
wind
direction
speed
KPH
gust
KPH
rain 1hr
cm
rain 24hr
cm
rain mn
cm
humidity
%
barometer
mb
20190424224311 11 360 8.0 9.7 0.00 0.00 0.00 61 1008.1
20190424221310 12 360 8.0 9.7 0.00 0.00 0.00 59 1007.6
20190424215310 12 360 6.4 9.7 0.00 0.00 0.00 59 1007.5
20190424214310 13 22 6.4 9.7 0.00 0.00 0.00 58 1007.6
20190424213310 13 360 4.8 9.7 0.00 0.00 0.00 56 1007.5
20190424212310 13 360 3.2 8.0 0.00 0.00 0.00 56 1007.5
20190424210310 13 360 6.4 8.0 0.00 0.00 0.00 55 1007.1
20190424205309 14 22 4.8 8.0 0.00 0.00 0.00 54 1007.1
20190424203309 15 22 3.2 8.0 0.00 0.00 0.00 51 1007.3
20190424202314 15 360 0.0 8.0 0.00 0.00 0.00 50 1007.3
20190424200314 16 22 6.4 9.7 0.00 0.00 0.00 48 1006.8
20190424195314 16 360 1.6 8.0 0.00 0.00 0.00 46 1006.8
20190424194313 16 67 4.8 11.3 0.00 0.00 0.00 45 1006.6
20190424193313 16 22 3.2 8.0 0.00 0.00 0.00 46 1006.6
20190424191313 17 67 3.2 6.4 0.00 0.00 0.00 45 1006.6
20190424185313 17 0 0.0 4.8 0.00 0.00 0.00 44 1006.1
20190424183312 17 45 3.2 8.0 0.00 0.00 0.00 43 1005.7
20190424181312 18 90 1.6 4.8 0.00 0.00 0.00 42 1005.6
20190424175314 18 67 3.2 12.9 0.00 0.00 0.00 40 1005.5
20190424174312 18 90 6.4 11.3 0.00 0.00 0.00 40 1005.6
20190424172312 19 45 3.2 9.7 0.00 0.00 0.00 38 1005.3
20190424170311 20 157 3.2 9.7 0.00 0.03 0.00 36 1005.1
20190424165311 20 180 3.2 6.4 0.00 0.03 0.00 36 1005.1
20190424163311 20 112 1.6 8.0 0.00 0.03 0.00 36 1004.8
20190424162311 20 135 1.6 8.0 0.00 0.03 0.00 35 1004.6
20190424161311 21 135 3.2 9.7 0.00 0.03 0.00 34 1005.1
20190424160311 21 45 3.2 12.9 0.00 0.03 0.00 33 1004.9
20190424155310 21 180 8.0 16.1 0.00 0.03 0.00 34 1004.9
20190424151310 21 157 9.7 17.7 0.00 0.03 0.00 30 1005.3
20190424150310 21 157 6.4 16.1 0.00 0.03 0.00 31 1005.4
20190424145310 22 157 9.7 24.1 0.00 0.03 0.00 32 1005.6
20190424140314 22 157 4.8 12.9 0.00 0.03 0.00 28 1005.8
20190424133314 21 180 6.4 19.3 0.00 0.03 0.00 27 1005.7
20190424125313 22 22 3.2 14.5 0.00 0.03 0.00 28 1006.0
20190424124313 22 157 8.0 12.9 0.00 0.03 0.00 28 1006.3
20190424122313 22 157 4.8 11.3 0.00 0.03 0.00 27 1006.4
20190424120312 21 67 6.4 17.7 0.00 0.03 0.00 29 1006.6
20190424115312 21 135 6.4 12.9 0.00 0.03 0.00 31 1006.6
20190424114312 21 225 1.6 16.1 0.00 0.03 0.00 31 1006.6
20190424113312 21 135 11.3 17.7 0.00 0.03 0.00 31 1006.8
20190424112312 21 180 11.3 17.7 0.00 0.03 0.00 32 1006.6
20190424111312 21 180 8.0 17.7 0.00 0.03 0.00 28 1006.4
20190424110312 21 247 1.6 14.5 0.00 0.03 0.00 33 1006.5
20190424104311 20 180 3.2 12.9 0.00 0.03 0.00 35 1006.5
20190424102311 20 360 3.2 14.5 0.00 0.03 0.00 37 1006.7
20190424094310 19 157 4.8 12.9 0.00 0.03 0.00 42 1006.7
20190424093310 18 157 8.0 14.5 0.00 0.03 0.00 44 1006.4
20190424090310 18 135 1.6 8.0 0.00 0.03 0.00 45 1006.2
20190424084310 18 180 4.8 11.3 0.00 0.03 0.00 43 1006.1
20190424082309 17 90 3.2 11.3 0.00 0.03 0.00 44 1005.8
20190424081309 17 157 4.8 9.7 0.00 0.03 0.00 45 1005.8
20190424075314 16 157 0.0 11.3 0.00 0.03 0.00 46 1005.4
20190424074314 16 135 3.2 9.7 0.00 0.03 0.00 45 1005.3
20190424072314 16 157 4.8 14.5 0.00 0.03 0.00 46 1005.2
20190424071314 16 270 0.0 8.0 0.00 0.03 0.00 50 1005.2
20190424070313 16 157 4.8 8.0 0.00 0.03 0.00 51 1005.1
20190424065314 15 202 1.6 6.4 0.00 0.03 0.00 49 1004.9
20190424064313 15 157 1.6 9.7 0.00 0.03 0.00 49 1004.6
20190424063313 15 157 1.6 8.0 0.00 0.03 0.00 52 1004.8
20190424061313 13 135 3.2 16.1 0.00 0.03 0.00 53 1004.5
20190424060313 13 157 6.4 11.3 0.00 0.03 0.00 55 1004.2
20190424055313 12 45 6.4 9.7 0.00 0.03 0.00 58 1004.2
20190424054312 12 360 8.0 9.7 0.00 0.03 0.00 62 1004.2
20190424053312 11 22 6.4 11.3 0.00 0.03 0.00 62 1003.7
20190424052312 10 360 3.2 8.0 0.00 0.03 0.00 64 1003.5
20190424050312 9 22 4.8 8.0 0.00 0.03 0.00 65 1002.9
20190424045312 8 22 8.0 12.9 0.00 0.03 0.00 68 1002.9
20190424044311 8 22 6.4 12.9 0.00 0.03 0.00 70 1002.9
20190424043311 8 22 8.0 11.3 0.00 0.03 0.00 71 1002.9
20190424042311 7 45 8.0 11.3 0.00 0.03 0.00 72 1002.9
20190424041311 7 22 8.0 12.9 0.00 0.03 0.00 74 1002.8
20190424040311 7 22 9.7 11.3 0.00 0.03 0.00 74 1002.6
20190424034311 7 360 9.7 11.3 0.00 0.03 0.00 72 1002.5
20190424033311 7 22 8.0 11.3 0.00 0.03 0.00 73 1002.6
20190424032310 7 22 6.4 11.3 0.00 0.03 0.00 72 1002.6
20190424031310 7 22 6.4 9.7 0.00 0.03 0.00 72 1002.5
20190424030310 7 22 9.7 11.3 0.00 0.03 0.00 74 1002.6
20190424023310 7 360 8.0 12.9 0.00 0.03 0.00 72 1002.6
20190424021310 8 360 8.0 14.5 0.00 0.03 0.00 71 1002.6
20190424020309 8 360 8.0 11.3 0.00 0.03 0.00 70 1002.7
20190424013309 8 22 9.7 11.3 0.00 0.03 0.00 70 1002.8
20190424005314 9 22 9.7 11.3 0.00 0.03 0.00 68 1003.0
20190424003313 10 22 6.4 14.5 0.00 0.03 0.00 65 1003.3
20190424002313 10 22 8.0 17.7 0.00 0.03 0.00 67 1003.5
20190424000313 10 45 6.4 17.7 0.00 0.03 0.00 63 1003.5
20190423235313 10 22 9.7 16.1 0.00 0.03 0.00 62 1003.5
20190423234313 10 22 4.8 11.3 0.00 0.03 0.00 64 1003.5
20190423232312 10 45 4.8 11.3 0.00 0.03 0.00 64 1003.5
20190423231312 10 22 4.8 14.5 0.00 0.03 0.00 64 1003.5
20190423225312 10 90 4.8 11.3 0.00 0.03 0.00 64 1003.5